TimePST,TemperatureF,Dew PointF,Humidity,Sea Level PressureIn,VisibilityMPH,Wind Direction,Wind SpeedMPH,Gust SpeedMPH,PrecipitationIn,Events,Conditions,WindDirDegrees,DateUTC
12:53 AM,37.9,34.0,86,30.30,10.0,Calm,Calm,-,N/A,,Clear,0,2013-02-12 08:53:00
1:53 AM,37.9,34.0,86,30.30,10.0,ESE,5.8,-,N/A,,Clear,120,2013-02-12 09:53:00
2:53 AM,37.9,32.0,79,30.31,10.0,ESE,8.1,-,N/A,,Clear,120,2013-02-12 10:53:00
3:53 AM,37.0,32.0,82,30.31,10.0,ESE,5.8,-,N/A,,Clear,120,2013-02-12 11:53:00
4:53 AM,36.0,30.9,82,30.34,10.0,SSE,3.5,-,N/A,,Clear,150,2013-02-12 12:53:00
5:53 AM,35.1,30.0,82,30.34,10.0,ESE,9.2,-,N/A,,Clear,120,2013-02-12 13:53:00
6:53 AM,35.1,30.0,82,30.35,10.0,ESE,8.1,-,N/A,,Clear,120,2013-02-12 14:53:00
7:53 AM,39.0,33.1,79,30.36,10.0,ESE,12.7,-,N/A,,Clear,110,2013-02-12 15:53:00
8:53 AM,44.1,35.1,71,30.38,10.0,ESE,13.8,-,N/A,,Clear,120,2013-02-12 16:53:00
9:53 AM,48.0,37.0,66,30.39,10.0,ESE,12.7,-,N/A,,Clear,110,2013-02-12 17:53:00
10:53 AM,53.1,37.9,57,30.39,10.0,ESE,12.7,-,N/A,,Clear,120,2013-02-12 18:53:00
11:53 AM,57.0,37.9,49,30.38,10.0,SE,4.6,-,N/A,,Clear,130,2013-02-12 19:53:00
12:53 PM,60.1,33.1,36,30.35,10.0,Calm,Calm,-,N/A,,Clear,0,2013-02-12 20:53:00
1:53 PM,59.0,42.1,53,30.34,10.0,West,11.5,-,N/A,,Clear,280,2013-02-12 21:53:00
2:53 PM,57.9,42.1,56,30.33,10.0,West,9.2,-,N/A,,Clear,270,2013-02-12 22:53:00
3:53 PM,57.0,43.0,59,30.34,10.0,WNW,10.4,-,N/A,,Clear,300,2013-02-12 23:53:00
4:53 PM,54.0,45.0,72,30.33,10.0,WNW,11.5,-,N/A,,Clear,290,2013-02-13 00:53:00
5:53 PM,51.1,45.0,80,30.35,9.0,West,8.1,-,N/A,,Clear,280,2013-02-13 01:53:00
6:53 PM,50.0,45.0,83,30.35,9.0,West,5.8,-,N/A,,Scattered Clouds,280,2013-02-13 02:53:00
7:02 PM,50.0,44.6,82,30.32,9.0,WNW,4.6,-,N/A,,Mostly Cloudy,300,2013-02-13 03:02:00
7:53 PM,50.0,45.0,83,30.35,9.0,Calm,Calm,-,N/A,,Overcast,0,2013-02-13 03:53:00
8:24 PM,48.2,44.6,87,30.32,8.0,West,4.6,-,N/A,,Scattered Clouds,270,2013-02-13 04:24:00
8:53 PM,46.9,43.0,86,30.36,8.0,Calm,Calm,-,N/A,,Clear,0,2013-02-13 04:53:00
9:53 PM,46.0,43.0,89,30.37,9.0,Calm,Calm,-,N/A,,Clear,0,2013-02-13 05:53:00
10:53 PM,44.1,39.9,85,30.37,9.0,Calm,Calm,-,N/A,,Clear,0,2013-02-13 06:53:00
11:53 PM,39.9,37.0,89,30.38,8.0,ESE,3.5,-,N/A,,Clear,120,2013-02-13 07:53:00